Tracking 18630 objects as of 23-May-2017
HD Live streaming from Space Station
objects crossing your sky now

TURKSAT 2A

Track TURKSAT 2A now!
TURKSAT 2A is classified as:


NORAD ID: 26666
Int'l Code: 2001-002A
Perigee: 36,340.6 km
Apogee: 36,424.3 km
Inclination: 1.1 °
Period: 1,466.3 minutes
Semi major axis: 42753 km
RCS: 3.9 m2 (large)
Launch date: January 10, 2001
Source: Turkey (TURK)
Launch site: FRENCH GUIANA (FRGUI)

32 Ku-band transponders; direct-to-home voice, video, and data transmissions to countries between central Europe and the Indian subcontinent.
Your satellite tracking list
Your tracking list is empty





NASA's NSSDC Master Catalog

Two Line Element Set (TLE):
1 26666U 01002A   17142.24588663 -.00000110 +00000-0 +00000-0 0  9999
2 26666 001.1028 085.9090 0009793 240.9708 118.3469 00.98207887059891
Source of the keplerian elements: AFSPC